FW8327 Weather Reports


Display with metric or nautical units.
time (UTC)temp
F
wind
direction
speed
MPH
gust
MPH
rain 1hr
in
rain 24hr
in
rain mn
in
humidity
%
barometer
mb
20260905171416 86 153 0.0 0.0 0.00 0.00 0.00 70 1012.5
20260905170911 86 216 0.0 0.0 0.00 0.00 0.00 72 1012.6
20260905170407 86 239 0.0 1.0 0.00 0.00 0.00 69 1012.9
20260905165906 85 160 0.0 0.0 0.00 0.00 0.00 72 1012.9
20260905165401 84 188 0.0 0.0 0.00 0.00 0.00 72 1013.0
20260905164856 84 176 0.0 0.0 0.00 0.00 0.00 71 1013.1
20260905164351 85 163 0.0 0.0 0.00 0.00 0.00 70 1013.2
20260905163846 84 189 0.0 0.0 0.00 0.00 0.00 72 1013.1
20260905163343 83 191 0.0 0.0 0.00 0.00 0.00 75 1013.2
20260905162839 82 154 0.0 0.0 0.00 0.00 0.00 75 1013.0
20260905162338 83 167 0.0 0.0 0.00 0.00 0.00 73 1013.2
20260905161833 83 169 0.0 0.0 0.00 0.00 0.00 75 1013.4
20260905161332 83 160 0.0 0.0 0.00 0.00 0.00 75 1013.0
20260905160830 83 148 0.0 0.0 0.00 0.00 0.00 75 1013.0
20260905160325 84 148 0.0 0.0 0.00 0.00 0.00 73 1013.1
20260905155819 84 157 0.0 0.0 0.00 0.00 0.00 73 1013.0
20260905155313 83 177 0.0 0.0 0.00 0.00 0.00 74 1013.1
20260905154807 82 134 0.0 0.0 0.00 0.00 0.00 75 1013.0
20260905154303 83 153 0.0 0.0 0.00 0.00 0.00 73 1013.0
20260905153758 82 182 0.0 0.0 0.00 0.00 0.00 75 1012.9
20260905153254 83 151 0.0 0.0 0.00 0.00 0.00 74 1013.0
20260905152748 82 159 0.0 0.0 0.00 0.00 0.00 74 1013.2
20260905152243 81 152 0.0 0.0 0.00 0.00 0.00 75 1013.0
20260905151742 81 77 0.0 1.0 0.00 0.00 0.00 75 1013.0
20260905151239 80 187 0.0 1.0 0.00 0.00 0.00 78 1013.0
20260905150738 79 164 0.0 1.0 0.00 0.00 0.00 78 1013.2
20260905150238 81 153 0.0 1.0 0.00 0.00 0.00 76 1013.5
20260905145735 81 172 0.0 0.0 0.00 0.00 0.00 76 1012.9
20260905145231 80 154 0.0 0.0 0.00 0.00 0.00 78 1013.0
20260905144729 80 142 0.0 1.0 0.00 0.00 0.00 78 1013.0
20260905144225 79 164 0.0 0.0 0.00 0.00 0.00 78 1013.1
20260905143724 78 162 1.0 3.0 0.00 0.00 0.00 79 1012.9
20260905143223 78 147 0.0 0.0 0.00 0.00 0.00 82 1012.9
20260905142722 78 142 0.0 0.0 0.00 0.00 0.00 81 1012.6
20260905142216 77 145 0.0 1.0 0.00 0.00 0.00 82 1012.9
20260905141712 78 186 1.0 2.0 0.00 0.00 0.00 82 1012.8
20260905141208 77 160 0.0 1.0 0.00 0.00 0.00 81 1013.1
20260905140702 76 125 1.0 3.0 0.00 0.00 0.00 83 1012.8
20260905140157 75 110 0.0 1.0 0.00 0.00 0.00 84 1013.0
20260905135651 75 169 3.0 6.0 0.00 0.00 0.00 84 1013.0
20260905135147 75 155 0.0 0.0 0.00 0.00 0.00 85 1012.7
20260905134647 75 133 0.0 1.0 0.00 0.00 0.00 86 1012.8
20260905134145 75 170 2.0 2.0 0.00 0.00 0.00 85 1012.9
20260905133641 75 157 0.0 0.0 0.00 0.00 0.00 86 1013.1
20260905133136 74 154 0.0 2.0 0.00 0.00 0.00 86 1013.1
20260905132636 74 183 0.0 0.0 0.00 0.00 0.00 86 1013.5
20260905132131 74 139 0.0 0.0 0.00 0.00 0.00 88 1013.4
20260905131626 73 166 0.0 1.0 0.00 0.00 0.00 88 1013.4
20260905131120 74 154 0.0 0.0 0.00 0.00 0.00 87 1013.4
20260905130615 73 140 0.0 0.0 0.00 0.00 0.00 88 1013.1
20260905130114 73 179 0.0 0.0 0.00 0.00 0.00 89 1013.5
20260905125609 72 158 1.0 3.0 0.00 0.00 0.00 89 1013.4
20260905125104 72 128 0.0 0.0 0.00 0.00 0.00 90 1013.5
20260905124602 72 141 0.0 0.0 0.00 0.00 0.00 90 1013.4
20260905124057 72 172 0.0 0.0 0.00 0.00 0.00 91 1013.1
20260905123552 72 152 0.0 0.0 0.00 0.00 0.00 92 1013.4
20260905123049 71 150 0.0 0.0 0.00 0.00 0.00 92 1013.0
20260905122549 71 151 0.0 0.0 0.00 0.00 0.00 91 1013.2
20260905122043 71 148 0.0 0.0 0.00 0.00 0.00 92 1013.4
20260905121537 71 142 0.0 0.0 0.00 0.00 0.00 93 1013.1
20260905121032 70 150 0.0 0.0 0.00 0.00 0.00 93 1013.0
20260905120527 70 153 0.0 0.0 0.00 0.00 0.00 94 1013.0
20260905120022 70 165 0.0 0.0 0.00 0.00 0.00 95 1013.0
20260905115521 70 165 0.0 0.0 0.00 0.00 0.00 95 1012.9
20260905115016 70 154 0.0 0.0 0.00 0.00 0.00 95 1012.9
20260905114515 70 161 0.0 0.0 0.00 0.00 0.00 95 1012.9
20260905114015 70 156 0.0 0.0 0.00 0.00 0.00 95 1013.2
20260905113510 70 118 0.0 0.0 0.00 0.00 0.00 94 1013.0
20260905113005 70 146 0.0 0.0 0.00 0.00 0.00 94 1012.9
20260905112500 70 83 0.0 0.0 0.00 0.00 0.00 94 1013.1
20260905111955 70 121 0.0 0.0 0.00 0.00 0.00 95 1012.9
20260905111449 70 139 0.0 0.0 0.00 0.00 0.00 94 1012.9
20260905110943 70 121 1.0 1.0 0.00 0.00 0.00 94 1012.7
20260905110442 70 125 0.0 1.0 0.00 0.00 0.00 94 1012.8
20260905105937 70 119 0.0 0.0 0.00 0.00 0.00 94 1013.0
20260905105432 70 106 1.0 2.0 0.00 0.00 0.00 94 1012.8
20260905104931 70 98 0.0 1.0 0.00 0.00 0.00 94 1012.7
20260905104427 70 112 1.0 2.0 0.00 0.00 0.00 94 1012.9
20260905103921 70 92 2.0 3.0 0.00 0.00 0.00 93 1013.0
20260905103418 71 148 2.0 3.0 0.00 0.00 0.00 93 1012.8
20260905102913 71 112 0.0 1.0 0.00 0.00 0.00 93 1012.7
20260905102410 71 103 1.0 2.0 0.00 0.00 0.00 93 1013.1
20260905101910 71 108 3.0 3.0 0.00 0.00 0.00 93 1012.9
20260905101408 72 88 2.0 3.0 0.00 0.00 0.00 93 1012.9
20260905100903 74 145 0.0 0.0 0.00 0.00 0.00 96 1012.8
20260905100359 74 135 1.0 2.0 0.00 0.00 0.00 99 1012.5
20260905095858 74 147 0.0 0.0 0.00 0.00 0.00 99 1012.1
20260905095352 74 148 0.0 0.0 0.00 0.00 0.00 99 1011.9
20260905094847 73 148 0.0 0.0 0.00 0.00 0.00 99 1011.7
20260905094343 73 148 0.0 0.0 0.00 0.00 0.00 99 1012.0
20260905093841 73 148 0.0 0.0 0.00 0.00 0.00 99 1011.7
20260905093337 73 149 0.0 0.0 0.00 0.00 0.00 99 1012.0
20260905092833 73 149 0.0 0.0 0.00 0.00 0.00 99 1012.0
20260905092333 73 140 0.0 0.0 0.00 0.00 0.00 99 1011.9
20260905091828 73 140 0.0 0.0 0.00 0.00 0.00 99 1011.9
20260905091328 73 158 0.0 0.0 0.00 0.00 0.00 99 1012.1
20260905090827 73 164 0.0 0.0 0.00 0.00 0.00 99 1011.5
20260905090323 74 164 0.0 0.0 0.00 0.00 0.00 99 1011.7
20260905085822 74 164 0.0 0.0 0.00 0.00 0.00 99 1011.8
20260905085316 74 164 0.0 0.0 0.00 0.00 0.00 98 1011.9
20260905084812 75 164 0.0 0.0 0.00 0.00 0.00 97 1011.7
20260905084311 75 164 0.0 0.0 0.00 0.00 0.00 97 1011.6
20260905083807 75 164 0.0 0.0 0.00 0.00 0.00 97 1011.7
20260905083303 75 163 0.0 0.0 0.00 0.00 0.00 97 1011.7
20260905082757 75 163 0.0 0.0 0.00 0.00 0.00 97 1011.6
20260905082253 75 163 0.0 0.0 0.00 0.00 0.00 97 1012.0
20260905081748 75 163 0.0 0.0 0.00 0.00 0.00 98 1011.6
20260905081243 75 163 0.0 0.0 0.00 0.00 0.00 98 1011.8
20260905080742 75 163 0.0 0.0 0.00 0.00 0.00 98 1011.7
20260905080237 75 183 0.0 0.0 0.00 0.00 0.00 98 1011.8
20260905075736 75 183 0.0 0.0 0.00 0.00 0.00 98 1011.6
20260905075235 75 183 0.0 0.0 0.00 0.00 0.00 97 1011.6
20260905074734 75 183 0.0 0.0 0.00 0.00 0.00 97 1011.6
20260905074230 76 183 0.0 0.0 0.00 0.00 0.00 96 1011.4
20260905073726 76 184 0.0 0.0 0.00 0.00 0.00 96 1011.4
20260905073221 76 165 0.0 0.0 0.00 0.00 0.00 95 1011.3
20260905072720 77 167 0.0 0.0 0.00 0.00 0.00 95 1011.1
20260905072216 77 165 0.0 0.0 0.00 0.00 0.00 94 1011.4
20260905071712 77 163 0.0 0.0 0.00 0.00 0.00 94 1011.2
20260905071208 77 173 0.0 0.0 0.00 0.00 0.00 95 1011.2
20260905070703 76 172 0.0 0.0 0.00 0.00 0.00 96 1011.2
20260905070159 76 155 0.0 0.0 0.00 0.00 0.00 97 1010.9
20260905065657 76 154 0.0 0.0 0.00 0.00 0.00 97 1010.7
20260905065152 76 155 0.0 0.0 0.00 0.00 0.00 98 1010.8
20260905064647 76 165 0.0 0.0 0.00 0.00 0.00 98 1011.2
20260905064143 76 156 0.0 0.0 0.00 0.00 0.00 98 1011.3
20260905063641 76 159 0.0 0.0 0.00 0.00 0.00 97 1011.2
20260905063138 76 163 0.0 0.0 0.00 0.00 0.00 98 1011.3
20260905062633 76 163 0.0 0.0 0.00 0.00 0.00 99 1011.5
20260905062132 76 163 0.0 0.0 0.00 0.00 0.00 99 1011.5
20260905061627 76 163 0.0 0.0 0.00 0.00 0.00 99 1011.6
20260905061126 76 163 0.0 0.0 0.00 0.00 0.00 99 1011.7
20260905060622 76 163 0.0 0.0 0.00 0.00 0.00 99 1011.7
20260905060119 76 163 0.0 0.0 0.00 0.00 0.00 99 1011.7
20260905055617 76 163 0.0 0.0 0.00 0.00 0.00 99 1012.0
20260905055112 77 163 0.0 0.0 0.00 0.00 0.00 99 1012.0
20260905054608 77 163 0.0 0.0 0.00 0.00 0.00 99 1012.0
20260905054103 77 163 0.0 0.0 0.00 0.00 0.00 99 1011.9
20260905053602 77 164 0.0 0.0 0.00 0.00 0.00 99 1011.9
20260905053058 77 156 0.0 0.0 0.00 0.00 0.00 99 1012.0
20260905052557 77 159 0.0 0.0 0.00 0.00 0.00 99 1012.1
20260905052052 77 159 0.0 0.0 0.00 0.00 0.00 99 1012.1
20260905051547 77 159 0.0 0.0 0.00 0.00 0.00 99 1012.2
20260905051044 77 155 0.0 0.0 0.00 0.00 0.00 99 1012.0
20260905050539 77 163 0.0 0.0 0.00 0.00 0.00 99 1012.2
20260905050031 77 159 0.0 0.0 0.00 0.00 0.00 99 1012.3
20260905045525 77 159 0.0 0.0 0.00 0.00 0.00 99 1012.2
20260905045021 77 159 0.0 0.0 0.00 0.00 0.00 99 1012.2
20260905044520 77 159 0.0 0.0 0.00 0.00 0.00 99 1012.3
20260905044015 77 160 0.0 0.0 0.00 0.00 0.00 99 1012.4
20260905043514 77 159 0.0 0.0 0.00 0.00 0.00 99 1012.5
20260905043009 77 159 0.0 0.0 0.00 0.00 0.00 99 1012.4
20260905042503 77 159 0.0 0.0 0.00 0.00 0.00 99 1012.5
20260905041958 77 159 0.0 0.0 0.00 0.00 0.00 99 1012.6
20260905041454 77 159 0.0 0.0 0.00 0.00 0.00 99 1012.7
20260905040949 77 159 0.0 0.0 0.00 0.00 0.00 99 1012.4
20260905040448 77 159 0.0 0.0 0.00 0.00 0.00 99 1012.5
20260905035947 77 159 0.0 0.0 0.00 0.00 0.00 99 1012.6
20260905035443 77 159 0.0 0.0 0.00 0.00 0.00 98 1012.4
20260905034940 77 159 0.0 0.0 0.00 0.00 0.00 97 1012.5
20260905034435 78 159 0.0 0.0 0.00 0.00 0.00 98 1012.4
20260905033934 78 159 0.0 0.0 0.00 0.00 0.00 98 1012.5
20260905033428 78 159 0.0 0.0 0.00 0.00 0.00 98 1012.7
20260905032928 78 159 0.0 0.0 0.00 0.00 0.00 97 1012.7
20260905032424 78 159 0.0 0.0 0.00 0.00 0.00 97 1012.7
20260905031919 78 159 0.0 0.0 0.00 0.00 0.00 97 1012.7
20260905031415 78 158 0.0 0.0 0.00 0.00 0.00 98 1012.7
20260905030909 78 158 0.0 0.0 0.00 0.00 0.00 97 1012.7
20260905030359 78 158 0.0 0.0 0.00 0.00 0.00 97 1012.6
20260905025858 79 158 0.0 0.0 0.00 0.00 0.00 96 1012.7
20260905025348 79 158 0.0 0.0 0.00 0.00 0.00 96 1012.5
20260905024844 79 158 0.0 0.0 0.00 0.00 0.00 96 1012.8
20260905024338 79 158 0.0 0.0 0.00 0.00 0.00 95 1012.4
20260905023834 79 158 0.0 0.0 0.00 0.00 0.00 96 1012.5
20260905023325 79 158 0.0 0.0 0.00 0.00 0.00 96 1012.5
20260905022823 79 158 0.0 0.0 0.00 0.00 0.00 96 1012.4
20260905022319 80 160 0.0 0.0 0.00 0.00 0.00 95 1012.5
20260905021818 80 159 0.0 0.0 0.00 0.00 0.00 95 1012.4
20260905021313 80 158 0.0 0.0 0.00 0.00 0.00 94 1012.5
20260905020808 81 158 0.0 0.0 0.00 0.00 0.00 93 1012.3
20260905020303 81 158 0.0 0.0 0.00 0.00 0.00 93 1012.5
20260905015802 81 158 0.0 0.0 0.00 0.00 0.00 94 1012.4
20260905015256 81 159 0.0 0.0 0.00 0.00 0.00 93 1012.4
20260905014755 81 159 0.0 0.0 0.00 0.00 0.00 93 1012.5
20260905014251 81 159 0.0 0.0 0.00 0.00 0.00 93 1012.3
20260905013747 81 159 0.0 0.0 0.00 0.00 0.00 93 1012.2
20260905013242 81 159 0.0 0.0 0.00 0.00 0.00 93 1012.5
20260905012738 81 159 0.0 0.0 0.00 0.00 0.00 93 1012.3
20260905012233 81 159 0.0 0.0 0.00 0.00 0.00 92 1012.3
20260905011730 81 159 0.0 0.0 0.00 0.00 0.00 93 1012.3
20260905011226 82 159 0.0 0.0 0.00 0.00 0.00 92 1012.3
20260905010726 82 159 0.0 0.0 0.00 0.00 0.00 91 1012.2
20260905010221 82 156 0.0 0.0 0.00 0.00 0.00 91 1012.3
20260905005718 82 170 0.0 0.0 0.00 0.00 0.00 91 1012.1
20260905005213 82 157 0.0 0.0 0.00 0.00 0.00 91 1012.0
20260905004707 82 154 0.0 0.0 0.00 0.00 0.00 90 1012.1
20260905004203 83 158 0.0 0.0 0.00 0.00 0.00 90 1012.0
20260905003658 83 158 0.0 0.0 0.00 0.00 0.00 89 1012.0
20260905003153 83 158 0.0 0.0 0.00 0.00 0.00 88 1012.0
20260905002648 84 145 0.0 0.0 0.00 0.00 0.00 87 1012.1
20260905002143 84 142 0.0 0.0 0.00 0.00 0.00 87 1012.0
20260905001638 84 152 0.0 0.0 0.00 0.00 0.00 87 1012.1
20260905001137 84 159 0.0 0.0 0.00 0.00 0.00 87 1011.9
20260905000632 85 117 0.0 0.0 0.00 0.00 0.00 86 1012.2
20260905000128 85 147 0.0 0.0 0.00 0.00 0.00 86 1012.1
20260904235623 86 134 0.0 0.0 0.00 0.00 0.00 85 1012.0
20260904235122 86 130 0.0 0.0 0.00 0.00 0.00 84 1012.1
20260904234617 86 137 0.0 0.0 0.00 0.00 0.00 83 1012.1
20260904234113 87 118 0.0 0.0 0.00 0.00 0.00 82 1012.1
20260904233609 87 139 0.0 0.0 0.00 0.00 0.00 81 1012.2
20260904233104 87 143 0.0 0.0 0.00 0.00 0.00 81 1012.1
20260904232601 87 141 0.0 0.0 0.00 0.00 0.00 81 1012.2
20260904232057 87 125 0.0 0.0 0.00 0.00 0.00 80 1012.1
20260904231553 88 147 0.0 0.0 0.00 0.00 0.00 79 1012.1
20260904231047 88 105 0.0 0.0 0.00 0.00 0.00 79 1012.2
20260904230546 88 122 0.0 0.0 0.00 0.00 0.00 79 1012.0
20260904230042 88 118 0.0 0.0 0.00 0.00 0.00 79 1012.2
20260904225539 88 132 0.0 0.0 0.00 0.00 0.00 80 1011.9
20260904225039 89 123 0.0 0.0 0.00 0.00 0.00 79 1012.0
20260904224535 90 126 0.0 0.0 0.00 0.00 0.00 76 1011.8
20260904224035 91 106 0.0 0.0 0.00 0.00 0.00 74 1011.8
20260904223533 90 96 0.0 0.0 0.00 0.00 0.00 73 1011.9
20260904223030 91 107 0.0 0.0 0.00 0.00 0.00 74 1012.0
20260904222525 91 157 0.0 0.0 0.00 0.00 0.00 75 1012.0
20260904222020 91 145 0.0 0.0 0.00 0.00 0.00 72 1011.8
20260904221514 91 143 0.0 0.0 0.00 0.00 0.00 74 1011.6
20260904221009 91 133 0.0 0.0 0.00 0.00 0.00 74 1011.6
20260904220509 90 149 0.0 0.0 0.00 0.00 0.00 74 1011.8
20260904220005 90 152 0.0 0.0 0.00 0.00 0.00 77 1011.8
20260904215459 89 151 0.0 0.0 0.00 0.00 0.00 76 1011.8
20260904214955 90 140 0.0 0.0 0.00 0.00 0.00 76 1011.8
20260904214450 90 140 0.0 0.0 0.00 0.00 0.00 76 1011.9
20260904213945 89 142 0.0 0.0 0.00 0.00 0.00 75 1011.9
20260904213438 90 135 0.0 0.0 0.00 0.00 0.00 76 1011.7
20260904212935 89 119 0.0 1.0 0.00 0.00 0.00 77 1011.9
20260904212434 91 102 0.0 0.0 0.00 0.00 0.00 75 1011.9
20260904211929 91 158 0.0 0.0 0.00 0.00 0.00 71 1011.7
20260904211429 90 148 0.0 0.0 0.00 0.00 0.00 73 1011.5
20260904210925 90 116 0.0 0.0 0.00 0.00 0.00 74 1011.5
20260904210424 89 152 0.0 0.0 0.00 0.00 0.00 72 1011.9
20260904205920 89 140 0.0 0.0 0.00 0.00 0.00 74 1011.7
20260904205415 90 138 0.0 0.0 0.00 0.00 0.00 73 1011.8
20260904204913 91 164 0.0 0.0 0.00 0.00 0.00 71 1011.9
20260904204408 90 118 0.0 0.0 0.00 0.00 0.00 72 1011.7
20260904203904 92 143 0.0 0.0 0.00 0.00 0.00 72 1012.2
20260904203400 92 144 0.0 0.0 0.00 0.00 0.00 68 1012.1
20260904202856 93 105 0.0 0.0 0.00 0.00 0.00 65 1012.1
20260904202352 92 114 0.0 0.0 0.00 0.00 0.00 68 1012.0
20260904201847 92 125 0.0 0.0 0.00 0.00 0.00 67 1012.2
20260904201347 93 142 0.0 0.0 0.00 0.00 0.00 67 1012.3
20260904200843 93 166 0.0 0.0 0.00 0.00 0.00 67 1012.5
20260904200341 92 146 0.0 0.0 0.00 0.00 0.00 68 1012.5
20260904195836 94 138 0.0 0.0 0.00 0.00 0.00 66 1012.3
20260904195334 92 62 0.0 0.0 0.00 0.00 0.00 70 1012.5
20260904194829 92 0 0.0 0.0 0.00 0.00 0.00 69 1012.8
20260904194328 91 24 0.0 0.0 0.00 0.00 0.00 69 1013.0
20260904193824 92 34 1.0 2.0 0.00 0.00 0.00 68 1013.1
20260904193319 91 359 1.0 1.0 0.00 0.00 0.00 68 1013.4
20260904192814 91 84 1.0 2.0 0.00 0.00 0.00 65 1013.0
20260904192309 90 339 1.0 2.0 0.00 0.00 0.00 70 1013.2
20260904191806 89 330 1.0 2.0 0.00 0.00 0.00 71 1013.2
20260904191303 90 341 0.0 2.0 0.00 0.00 0.00 71 1013.1
20260904190759 92 282 1.0 2.0 0.00 0.00 0.00 68 1013.6
20260904190254 93 282 0.0 0.0 0.00 0.00 0.00 69 1013.4
20260904185750 93 290 0.0 0.0 0.00 0.00 0.00 66 1013.8
20260904185245 93 284 0.0 0.0 0.00 0.00 0.00 69 1013.8
20260904184744 92 288 0.0 0.0 0.00 0.00 0.00 72 1014.0
20260904184240 93 274 0.0 0.0 0.00 0.00 0.00 68 1013.9
20260904183736 93 188 0.0 0.0 0.00 0.00 0.00 65 1013.9
20260904183230 93 216 0.0 0.0 0.00 0.00 0.00 64 1013.8
20260904182726 93 153 0.0 0.0 0.00 0.00 0.00 67 1013.9
20260904182221 93 256 1.0 2.0 0.00 0.00 0.00 62 1013.7
20260904181717 93 251 0.0 0.0 0.00 0.00 0.00 65 1014.0
20260904181216 92 254 0.0 0.0 0.00 0.00 0.00 65 1013.9
20260904180712 93 251 0.0 0.0 0.00 0.00 0.00 64 1014.1
20260904180207 92 205 0.0 0.0 0.00 0.00 0.00 65 1014.1
20260904175706 92 232 0.0 0.0 0.00 0.00 0.00 63 1014.1
20260904175205 92 188 0.0 0.0 0.00 0.00 0.00 64 1014.0
20260904174659 92 271 1.0 2.0 0.00 0.00 0.00 64 1014.0
20260904174155 92 218 0.0 0.0 0.00 0.00 0.00 63 1014.2
20260904173651 92 176 0.0 0.0 0.00 0.00 0.00 60 1014.2
20260904173146 91 176 0.0 0.0 0.00 0.00 0.00 69 1014.3
20260904172642 90 187 0.0 0.0 0.00 0.00 0.00 69 1014.3
20260904172141 90 268 0.0 0.0 0.00 0.00 0.00 65 1014.3
20260904171637 90 246 0.0 0.0 0.00 0.00 0.00 69 1014.3